Terminal Aerodrome Forecast
Issued by NWS

Home | Current Version | Previous Version | Text Only | Print | Product List | Glossary On
Versions: 1 2 3 4 5 6 7 8 9 10 11 12 13 14 15 16 17 18 19
000
FTUS46 KMTR 292300
TAFMRY
TAF
KMRY 292338Z 3000/3024 29008KT P6SM SCT009
     FM300100 25008KT 6SM BR OVC007
     FM300400 22005KT 4SM -DZ BR OVC003
     FM301800 28005KT P6SM BKN009=

USA.gov is the U.S. government's official web portal to all federal, state and local government web resources and services.